Location: Dallas
(32.7833°N, 96.8000°W)
Time: 20:45:09
(UTC-06:00)

Envisat - Pass Details

Date: 10 April 2018
Orbit: 764 x 766 km, 98.1° (Epoch: 22 February)

Event Time Altitude Azimuth Distance (km) Brightness Sun altitude
Exits shadow 20:46:45 - 157° (SSE) 2,963 5.7 -11.6°
Reaches altitude 10° 20:48:26 10° 154° (SSE) 2,291 5.1 -11.9°
Maximum altitude 20:53:25 61° 75° (ENE) 864 3.0 -12.9°
Drops below altitude 10° 20:58:24 10° 356° (N) 2,305 5.8 -13.9°
Sets 21:00:44 0° 353° (N) 3,235 6.6 -14.4°
